Temp
46 48 46 45 45 46 44 45 38 40 44 50 55 56 58 59 59 59 60 61 58 52 48 42 41 45 45 44 44 44 42 43 40 41 42 41 40 39 40 40 37 31 31 32
32 43 44 38 42 41 43 44 43 45 45 55 59 60 57 56 57 57 58 59 59 57 53 47 45 47 47 46 45 45 43 41 43 42 42 41 42 41 41 41 41 41 41 39
31 41 41 34 37 41 44 48 46 40 49 56 55 55 56 57 58 57 59 59 59 57 54 50 49 49 47 47 46 42 40 44 42 42 41 41 42 42 41 41 42 41 41 41
30 36 23 41 51 50 46 47 50 50 52 54 55 57 59 61 58 57 58 57 55 53 51 51 51 50 49 47 42 40 41 41 43 42 41 42 42 41 41 42 41 41 40 41
28 32 39 44 48 47 45 44 52 50 51 53 55 54 55 55 54 54 55 54 53 48 47 50 50 49 47 43 41 40 39 42 43 42 41 41 41 41 42 41 41 40 40 40
30 25 25 42 50 52 51 37 50 50 49 50 52 45 49 52 50 50 53 53 50 48 49 48 48 47 43 41 38 39 41 42 43 42 42 40 41 40 41 42 40 39 37 37
32 30 38 50 52 51 34 38 50 52 52 51 48 51 51 50 48 50 52 51 50 49 48 48 46 44 40 38 37 43 44 43 42 43 41 40 39 40 39 39 37 32 30 30
34 29 27 53 47 39 47 52 52 52 53 51 53 53 51 49 46 48 49 48 49 48 46 46 46 43 40 39 44 46 44 43 42 42 41 39 38 39 38 36 30 29 29 30
37 39 49 52 51 55 54 51 50 49 52 53 52 53 53 50 49 49 49 47 48 47 45 46 47 46 43 46 46 45 44 43 43 42 41 40 38 37 37 36 35 33 32 32
41 46 49 51 54 53 55 51 50 48 49 51 51 55 53 51 50 48 49 48 48 45 43 43 47 48 48 47 47 45 44 43 43 41 40 41 40 39 38 36 36 35 34 33
41 45 47 47 49 53 55 55 53 52 49 49 51 53 53 50 49 50 49 48 47 45 43 43 46 47 48 47 47 44 44 43 42 42 40 41 41 41 39 37 38 36 34 33
37 47 46 49 55 55 52 53 54 53 50 45 50 53 52 51 51 50 48 47 46 46 45 45 46 46 46 47 46 45 43 42 41 41 40 41 41 39 31 32 31 31 32 33
47 53 53 53 54 54 52 54 55 54 51 42 46 53 52 51 51 46 49 47 46 45 46 45 45 45 47 47 46 44 43 42 42 40 40 39 38 36 34 30 29 30 29 30
54 53 48 50 49 55 55 55 54 55 54 48 49 52 52 51 48 48 47 48 48 46 45 45 44 43 45 45 45 43 43 36 39 38 37 37 36 36 35 32 29 29 29 29
52 53 51 53 53 54 55 54 51 52 53 51 52 51 50 49 47 48 49 48 46 45 44 45 44 42 43 42 40 37 38 37 36 36 35 35 35 35 34 34 33 32 31 28
52 52 52 50 52 53 54 52 51 52 52 51 50 49 50 50 49 48 46 45 43 41 43 39 42 41 42 42 41 39 39 35 36 37 35 35 35 34 33 33 32 32 32 31
46 45 48 48 49 50 52 53 53 53 51 50 47 46 48 47 45 43 44 44 41 38 41 38 36 37 37 37 39 40 39 36 34 37 36 35 35 34 33 33 32 32 32 31
52 51 51 50 49 49 50 50 50 50 48 48 45 41 36 37 40 39 38 37 34 34 37 35 33 33 33 34 37 40 39 37 36 36 36 34 34 35 34 33 33 32 31 28
49 50 50 50 50 50 48 47 46 43 38 35 34 34 34 34 36 34 33 33 33 32 32 32 31 32 33 33 37 40 39 37 37 36 35 33 32 34 33 32 32 31 32 30
46 47 48 46 48 49 47 45 43 39 36 35 34 33 33 32 32 32 33 33 35 37 32 32 33 34 33 32 34 40 37 35 36 34 32 33 32 31 32 32 32 30 29 28
41 40 37 40 35 35 35 35 34 33 32 33 34 33 32 31 32 32 32 35 29 30 33 32 37 37 37 36 38 37 34 33 32 32 32 31 31 31 30 30 29 28 28 26
39 33 32 32 33 32 32 33 33 32 32 31 30 30 30 30 30 30 29 37 32 30 34 35 37 35 36 33 37 33 34 34 33 32 32 31 30 29 28 28 27 26 25 24
36 35 33 32 32 31 32 32 32 32 31 30 30 31 34 35 37 35 33 32 33 32 36 35 30 29 31 33 32 32 32 31 31 31 31 30 29 28 27 26 25 25 23 22
35 35 32 32 32 37 33 31 33 31 30 30 30 31 34 33 32 35 35 32 30 31 31 29 29 30 31 31 31 31 31 30 30 30 29 28 28 26 25 24 23 23 20 19
33 32 32 33 37 37 34 34 33 33 34 34 33 34 36 37 35 32 32 30 29 31 29 26 28 29 30 30 30 30 30 29 28 28 27 26 25 24 23 22 21 20 18 17
37 40 40 39 41 39 38 38 36 36 34 32 32 32 31 31 31 31 30 30 30 29 28 28 28 29 29 29 29 28 27 25 26 26 25 24 23 21 20 18 15 16 16 15
37 35 39 38 39 38 38 38 35 33 34 32 30 31 31 30 30 30 28 28 28 27 27 27 28 28 27 27 26 25 25 24 23 23 22 21 20 18 16 16 15 14 12 9
MSLP
1010.59 1010.38 1010.64 1010.43 1010.10 1010.12 1009.89 1009.58 1009.55 1007.82 1008.11 1005.97 1006.64 1006.78 1007.13 1007.51 1007.91 1008.19 1008.44 1009.16 1010.66 1012.35 1013.91 1015.80 1017.00 1017.92 1019.04 1020.16 1021.05 1021.81 1022.74 1023.41 1024.50 1025.09 1025.32 1025.62 1026.09 1026.45 1026.57 1026.81 1027.57 1028.42 1028.55 1028.56
1011.91 1011.56 1011.20 1010.71 1010.42 1010.46 1010.00 1009.28 1008.91 1008.33 1006.25 1007.05 1006.63 1006.61 1006.74 1006.99 1007.26 1007.44 1007.66 1008.17 1009.32 1010.69 1011.99 1013.83 1015.35 1016.50 1017.90 1019.12 1020.17 1021.19 1022.28 1023.12 1023.65 1024.55 1024.94 1025.23 1025.61 1025.99 1026.29 1026.55 1026.83 1027.07 1027.54 1028.05
1011.80 1011.55 1010.93 1010.07 1009.40 1009.31 1008.77 1008.43 1008.39 1007.47 1006.42 1006.63 1006.31 1006.33 1006.35 1006.41 1006.67 1006.81 1007.03 1007.56 1008.37 1009.59 1011.03 1012.80 1014.24 1015.53 1016.91 1018.28 1019.72 1021.15 1022.11 1022.60 1023.35 1024.07 1024.42 1024.97 1025.42 1025.82 1026.11 1026.38 1026.79 1027.10 1027.42 1027.60
1012.31 1011.74 1010.26 1008.36 1008.44 1008.57 1008.20 1007.98 1007.82 1007.26 1006.93 1006.61 1006.24 1006.07 1006.11 1006.28 1006.57 1006.81 1007.19 1007.74 1008.62 1009.72 1011.15 1012.48 1013.85 1015.26 1016.64 1018.07 1019.70 1020.82 1021.59 1022.40 1023.03 1023.56 1024.06 1024.71 1025.19 1025.54 1025.99 1026.42 1026.75 1027.09 1027.45 1027.65
1012.13 1010.60 1009.12 1008.05 1007.84 1007.69 1007.53 1007.36 1007.05 1006.98 1006.90 1006.70 1006.37 1006.33 1005.95 1006.82 1007.28 1007.51 1007.85 1008.31 1009.23 1010.76 1011.75 1012.63 1013.83 1015.22 1016.63 1018.10 1019.37 1020.35 1021.25 1021.91 1022.57 1023.18 1023.76 1024.42 1024.85 1025.34 1025.85 1026.31 1026.80 1027.19 1027.59 1027.72
1011.74 1010.29 1008.36 1007.06 1007.36 1008.06 1007.95 1007.07 1007.29 1007.35 1007.11 1006.85 1006.53 1006.05 1006.68 1007.57 1008.22 1008.52 1008.68 1009.24 1010.21 1011.38 1012.18 1013.01 1014.24 1015.58 1016.82 1017.95 1019.02 1019.82 1020.73 1021.49 1022.28 1023.02 1023.63 1024.18 1024.77 1025.33 1025.87 1026.31 1026.84 1027.52 1027.96 1028.22
1010.63 1009.70 1007.84 1007.06 1007.43 1008.26 1007.74 1007.37 1007.47 1007.57 1007.32 1007.12 1006.87 1007.06 1007.78 1008.47 1008.98 1009.18 1009.40 1009.94 1010.83 1011.69 1012.39 1013.37 1014.64 1015.87 1016.89 1017.93 1018.60 1019.42 1020.49 1021.40 1022.20 1022.97 1023.62 1024.40 1025.02 1025.53 1026.10 1026.56 1027.16 1027.94 1028.57 1028.90
1009.75 1008.99 1007.62 1006.75 1007.69 1007.68 1007.15 1007.37 1007.55 1007.71 1007.64 1007.47 1007.28 1007.40 1007.98 1008.58 1009.23 1009.68 1009.94 1010.74 1011.27 1011.91 1012.79 1013.91 1014.92 1015.84 1016.70 1017.51 1018.30 1019.19 1020.27 1021.16 1022.01 1022.80 1023.64 1024.48 1025.08 1025.71 1026.29 1026.95 1027.84 1028.25 1028.57 1028.80
1008.78 1007.65 1007.54 1007.35 1007.11 1007.17 1007.30 1007.49 1007.94 1008.19 1007.72 1007.45 1007.27 1007.08 1007.62 1008.31 1008.95 1009.67 1010.32 1010.97 1011.61 1012.21 1013.07 1014.02 1014.76 1015.44 1016.08 1016.76 1017.84 1018.90 1019.88 1020.72 1021.66 1022.62 1023.52 1024.28 1025.06 1025.56 1026.03 1026.67 1027.09 1027.56 1027.93 1028.16
1008.34 1007.64 1007.36 1007.40 1007.21 1007.26 1007.10 1007.39 1007.88 1008.01 1008.11 1007.59 1007.05 1006.75 1007.24 1008.02 1008.75 1009.57 1010.33 1011.05 1011.79 1012.54 1013.20 1013.85 1014.50 1015.12 1015.66 1016.60 1017.68 1018.59 1019.47 1020.38 1021.32 1022.19 1023.06 1023.93 1024.63 1025.22 1025.59 1026.04 1026.39 1026.78 1027.17 1027.57
1007.50 1007.37 1007.30 1007.37 1007.17 1006.77 1006.59 1006.82 1007.11 1007.30 1007.44 1006.98 1006.74 1006.52 1006.95 1007.74 1008.46 1009.23 1010.11 1011.04 1011.84 1012.51 1013.23 1013.85 1014.47 1015.08 1015.75 1016.88 1017.62 1018.37 1019.23 1020.11 1021.01 1021.80 1022.74 1023.27 1024.01 1024.62 1025.19 1025.86 1026.07 1026.38 1026.83 1027.34
1006.44 1006.67 1006.71 1006.11 1006.07 1006.32 1006.42 1006.31 1006.44 1006.73 1006.95 1007.13 1007.09 1006.55 1006.89 1007.41 1008.16 1009.04 1009.96 1010.89 1011.69 1012.40 1013.19 1013.95 1014.63 1015.18 1016.07 1016.86 1017.56 1018.14 1019.03 1019.91 1020.71 1021.44 1022.29 1022.77 1023.50 1024.56 1025.73 1026.12 1026.59 1027.04 1027.11 1027.39
1005.91 1005.99 1006.06 1005.78 1005.96 1006.27 1006.09 1005.99 1005.96 1006.11 1006.56 1006.66 1006.99 1006.61 1006.81 1007.30 1008.11 1008.96 1009.85 1010.73 1011.47 1012.23 1013.05 1013.95 1014.67 1015.37 1016.05 1016.80 1017.47 1018.10 1018.83 1019.71 1020.52 1021.25 1021.91 1022.50 1023.25 1024.10 1024.95 1026.56 1027.01 1027.23 1027.55 1027.80
1005.48 1005.63 1005.54 1005.53 1005.31 1005.29 1005.22 1005.36 1005.54 1005.60 1005.64 1005.96 1006.25 1006.63 1006.92 1007.45 1008.42 1009.08 1009.79 1010.54 1011.45 1012.39 1013.22 1013.94 1014.72 1015.48 1016.20 1016.96 1017.59 1018.29 1018.86 1019.87 1020.48 1021.17 1021.84 1022.49 1023.14 1023.73 1024.40 1025.31 1026.11 1026.72 1027.44 1027.71
1004.80 1004.97 1005.06 1005.15 1005.14 1004.85 1004.90 1004.91 1004.99 1004.95 1005.09 1005.62 1006.06 1006.39 1006.95 1007.52 1008.36 1009.08 1009.85 1010.75 1011.67 1012.43 1013.27 1013.98 1014.72 1015.68 1016.49 1017.16 1017.88 1018.76 1019.42 1020.20 1020.93 1021.55 1022.11 1022.57 1023.14 1023.69 1024.26 1024.83 1025.28 1025.81 1026.64 1027.55
1004.17 1004.35 1004.45 1004.61 1004.43 1004.45 1004.39 1004.59 1004.62 1004.55 1004.96 1005.42 1005.96 1006.52 1007.11 1007.76 1008.56 1009.46 1010.30 1011.05 1011.63 1012.34 1013.16 1014.00 1014.82 1015.76 1016.56 1017.22 1017.94 1018.78 1019.34 1020.02 1020.68 1021.22 1021.81 1022.38 1022.87 1023.38 1023.92 1024.36 1024.80 1025.19 1025.66 1026.02
1003.99 1003.90 1003.99 1003.94 1003.90 1003.99 1003.97 1004.15 1004.33 1004.47 1004.95 1005.53 1006.19 1006.95 1007.55 1008.27 1009.19 1010.06 1010.68 1011.42 1012.14 1012.83 1013.53 1014.39 1015.19 1016.01 1016.66 1017.26 1017.88 1018.38 1019.06 1019.99 1020.57 1021.03 1021.48 1021.99 1022.49 1023.00 1023.46 1023.89 1024.22 1024.57 1024.94 1025.56
1003.74 1003.66 1003.71 1003.71 1003.72 1003.86 1004.00 1004.33 1004.55 1004.81 1005.35 1005.99 1006.97 1007.48 1008.16 1008.84 1009.50 1010.45 1011.29 1012.03 1012.94 1013.65 1014.13 1014.77 1015.49 1016.22 1016.86 1017.45 1017.87 1018.27 1018.94 1019.61 1020.30 1020.67 1021.11 1021.67 1022.18 1022.52 1022.94 1023.32 1023.71 1024.12 1024.63 1025.52
1004.10 1003.82 1003.73 1003.77 1003.88 1004.15 1004.55 1004.92 1005.42 1006.15 1006.80 1007.24 1008.15 1009.07 1009.24 1009.72 1010.42 1011.21 1011.97 1012.61 1013.23 1013.91 1014.62 1015.10 1015.75 1016.34 1016.98 1017.59 1017.99 1018.37 1018.82 1019.39 1019.96 1020.45 1020.92 1021.58 1022.11 1022.26 1022.69 1023.11 1023.50 1023.94 1024.30 1025.01
1004.84 1004.69 1004.57 1004.64 1004.69 1004.92 1005.34 1006.02 1006.52 1007.04 1007.66 1008.21 1008.98 1009.69 1010.23 1010.69 1011.12 1011.75 1012.46 1013.16 1013.55 1014.00 1014.57 1015.29 1015.91 1016.40 1017.06 1017.70 1018.00 1018.24 1018.83 1019.43 1019.78 1020.36 1020.98 1021.39 1021.79 1022.24 1022.66 1023.06 1023.36 1023.91 1024.47 1025.01
1005.96 1005.94 1005.97 1006.14 1006.34 1006.46 1006.53 1006.89 1007.35 1008.02 1008.51 1008.89 1009.31 1009.91 1010.58 1011.39 1011.91 1012.37 1012.99 1013.47 1014.53 1014.88 1014.99 1015.55 1015.76 1016.39 1016.97 1017.61 1017.95 1018.39 1018.96 1019.42 1019.89 1020.43 1020.93 1021.32 1021.85 1022.27 1022.77 1023.23 1023.71 1024.17 1024.66 1025.28
1006.88 1007.01 1007.19 1007.37 1007.42 1007.62 1007.70 1007.83 1008.17 1008.69 1009.11 1009.48 1009.99 1010.61 1011.11 1011.75 1012.26 1012.90 1013.41 1013.34 1014.55 1015.14 1015.29 1015.71 1016.14 1016.66 1017.14 1017.68 1018.09 1018.66 1019.02 1019.52 1020.04 1020.49 1020.94 1021.43 1021.91 1022.42 1022.98 1023.50 1023.99 1024.57 1025.13 1025.72
1007.77 1007.93 1008.09 1008.17 1008.23 1008.54 1008.67 1008.83 1009.15 1009.45 1009.75 1010.22 1010.59 1011.10 1011.45 1011.66 1012.06 1012.43 1013.15 1014.33 1014.73 1015.18 1015.32 1015.96 1016.79 1017.28 1017.64 1018.00 1018.52 1018.95 1019.39 1019.86 1020.30 1020.72 1021.20 1021.69 1022.21 1022.75 1023.32 1023.90 1024.46 1025.02 1025.56 1026.12
1008.37 1008.44 1008.63 1008.80 1008.89 1008.81 1009.08 1009.61 1009.82 1010.25 1010.52 1010.98 1011.45 1011.73 1011.80 1012.17 1012.88 1013.15 1013.61 1014.48 1015.19 1015.58 1016.07 1016.84 1017.31 1017.71 1018.07 1018.51 1018.90 1019.32 1019.78 1020.23 1020.68 1021.20 1021.77 1022.36 1022.85 1023.42 1023.92 1024.57 1025.01 1025.51 1026.18 1026.74
1008.79 1008.86 1008.94 1008.99 1008.79 1008.99 1009.48 1009.99 1010.31 1010.59 1010.84 1011.34 1011.92 1012.24 1012.33 1012.58 1012.74 1013.91 1014.43 1015.17 1015.78 1016.06 1016.84 1017.60 1017.97 1018.32 1018.62 1018.96 1019.34 1019.78 1020.25 1020.74 1021.29 1021.84 1022.36 1022.89 1023.43 1023.98 1024.54 1025.12 1025.66 1026.12 1026.68 1027.14
1008.71 1008.54 1008.64 1008.76 1008.63 1008.98 1009.41 1009.82 1010.16 1010.73 1011.16 1011.74 1012.37 1012.79 1013.10 1013.49 1014.01 1014.51 1015.14 1015.75 1016.25 1016.82 1017.42 1018.04 1018.40 1018.72 1019.10 1019.55 1019.99 1020.42 1020.99 1021.72 1022.10 1022.56 1023.05 1023.54 1024.14 1024.68 1025.28 1025.87 1026.45 1026.76 1027.20 1027.69
1008.72 1008.73 1008.68 1008.79 1008.86 1009.13 1009.44 1009.81 1010.20 1010.80 1011.35 1011.94 1012.58 1013.28 1013.64 1014.03 1014.52 1014.96 1015.63 1016.20 1016.77 1017.35 1017.89 1018.42 1018.84 1019.25 1019.74 1020.18 1020.70 1021.22 1021.76 1022.37 1022.94 1023.40 1023.81 1024.32 1024.76 1025.33 1025.97 1026.46 1026.87 1027.35 1027.98 1028.55
Wind_Speed
15 13 11 14 18 18 20 21 19 24 24 28 22 17 17 18 18 18 17 14 15 18 18 18 17 17 16 16 15 14 14 13 13 10 9 10 10 8 8 9 9 7 7 5
4 10 12 15 17 16 21 24 22 26 33 18 22 19 14 14 13 12 13 13 15 17 19 21 21 20 18 17 16 16 14 12 13 11 10 9 9 8 8 8 8 8 8 8
18 16 12 18 14 20 23 22 20 23 24 18 17 16 15 12 11 12 11 9 11 15 16 17 19 19 19 18 17 15 14 13 13 12 11 10 10 9 9 8 8 8 7 7
7 10 16 15 6 11 15 14 14 18 19 19 19 17 16 13 13 11 9 6 6 9 12 14 17 19 18 18 18 17 15 14 14 13 12 11 11 10 9 8 8 7 7 7
8 13 17 15 14 16 17 15 13 10 9 11 10 9 11 2 3 4 3 4 7 9 11 15 17 18 18 18 17 17 16 15 14 13 13 12 12 11 9 8 8 7 7 7
6 6 8 3 5 4 4 12 6 5 6 8 7 6 5 3 1 3 7 8 10 13 13 15 17 18 18 18 16 16 15 15 14 13 13 12 11 11 9 8 8 7 6 7
11 10 9 5 7 4 11 4 2 7 9 8 8 6 4 2 2 4 7 10 12 13 13 16 17 17 17 16 14 16 15 15 14 13 12 12 11 9 9 8 7 7 7 6
9 12 15 6 4 12 5 10 11 12 11 12 11 7 4 3 6 7 9 12 12 12 13 15 17 17 17 17 16 16 16 15 14 13 10 10 11 10 9 9 8 8 7 7
5 5 5 4 5 7 7 8 9 12 14 12 14 9 6 7 8 8 10 10 10 11 14 14 16 16 17 16 17 16 16 16 15 14 12 11 12 10 9 10 8 8 7 6
11 10 16 14 13 11 11 9 8 3 14 15 14 11 7 8 9 9 10 10 10 12 14 14 14 14 14 16 17 17 16 15 14 13 13 12 9 9 8 8 7 6 6 6
13 15 14 12 19 16 12 9 12 6 9 15 11 12 8 10 11 10 11 10 11 11 12 14 14 14 15 16 17 15 15 13 13 11 12 11 10 9 8 7 5 6 6 5
11 13 11 16 15 10 11 11 10 8 6 7 11 10 11 11 11 11 12 12 11 12 13 14 14 14 15 16 16 15 13 11 10 9 10 9 9 8 6 5 5 1 4 5
16 15 14 16 14 12 14 15 15 10 7 3 14 9 11 10 11 11 13 13 13 13 13 14 14 14 14 14 14 14 12 11 9 9 10 9 8 8 8 4 7 9 9 10
18 15 16 17 13 12 11 10 9 13 12 9 8 8 10 10 12 13 13 13 13 13 14 14 14 14 13 13 13 12 10 7 9 8 8 8 8 7 6 8 8 7 9 11
18 15 16 15 13 14 13 13 12 10 7 8 10 11 12 12 13 12 12 13 13 13 13 14 14 13 12 12 10 10 9 8 8 8 8 8 8 7 7 7 7 7 7 9
12 8 9 13 14 15 11 9 9 8 7 9 11 11 11 11 11 12 13 13 14 13 14 11 12 13 14 13 13 10 9 9 9 8 8 8 7 7 7 7 7 7 7 8
14 17 16 17 14 14 15 12 10 8 8 11 12 11 12 12 12 13 12 11 8 8 11 11 10 10 10 10 11 9 8 8 9 7 8 8 7 8 7 7 7 7 7 6
12 14 13 12 11 9 8 7 6 5 7 9 9 9 8 11 12 11 9 8 8 6 6 7 9 10 9 9 9 8 8 8 8 7 7 7 7 7 7 7 7 7 6 6
3 4 4 5 7 6 3 6 9 10 8 9 9 5 5 6 8 9 9 8 8 8 6 6 10 10 9 9 9 7 8 8 8 6 6 6 6 6 6 6 6 6 6 6
5 5 5 6 6 9 7 8 10 9 6 7 8 7 7 6 7 9 8 7 4 3 9 9 10 10 9 10 8 7 8 8 7 6 6 7 6 6 5 5 5 5 5 5
6 6 5 4 4 5 5 4 6 6 5 5 8 8 8 7 7 8 9 7 4 6 9 11 9 8 8 10 7 7 7 7 7 7 7 6 6 6 5 5 5 4 4 5
5 4 4 4 4 5 5 5 6 6 6 7 8 9 11 10 10 8 5 5 7 9 8 7 7 8 9 9 7 7 7 7 7 6 6 6 6 5 5 5 4 4 4 5
4 4 4 4 5 6 7 6 5 5 8 8 9 10 7 8 7 8 7 6 8 8 7 7 10 13 11 6 6 7 7 7 7 6 6 5 5 5 5 5 4 4 5 5
3 3 4 5 5 7 8 5 7 7 8 8 8 7 8 8 5 5 9 10 13 8 8 9 10 12 9 6 6 7 7 7 6 6 6 6 5 4 5 5 5 4 4 4
1 3 3 4 5 5 8 7 8 8 9 9 8 7 7 4 3 7 8 9 12 10 9 11 11 10 6 7 7 7 7 7 6 6 6 6 5 5 5 4 4 4 4 4
4 3 4 3 3 5 6 6 6 6 6 7 6 5 6 7 8 9 8 10 9 11 9 7 7 7 7 8 8 8 8 8 7 6 6 6 5 5 4 5 4 4 4 4
4 3 4 4 4 5 5 5 7 7 6 6 8 6 7 7 8 9 11 9 9 9 8 8 7 8 8 8 8 8 7 7 7 6 6 5 5 5 5 4 4 4 4 4
Wind_Direction
267 277 277 276 272 271 262 258 256 269 265 273 285 295 288 281 279 277 266 240 208 195 193 184 181 177 172 168 165 163 164 164 162 168 150 140 142 142 137 133 116 121 109 101
255 265 268 269 260 252 260 261 261 262 266 279 289 285 281 277 273 265 257 246 219 206 190 186 186 182 174 168 166 163 167 167 164 163 157 148 146 145 141 133 133 136 128 122
257 255 264 262 248 241 256 252 251 257 273 290 288 283 276 274 286 272 264 258 227 206 195 185 185 180 175 166 158 161 166 170 163 164 155 153 149 149 144 137 138 132 131 125
274 254 254 274 236 255 259 266 263 265 273 279 285 285 281 278 275 272 269 250 195 183 180 177 175 175 168 159 163 165 169 167 167 163 159 157 159 154 147 148 145 141 135 131
241 252 270 245 234 264 263 280 262 271 292 300 306 289 265 323 301 293 266 137 135 143 163 164 165 166 160 162 164 165 169 172 168 166 162 164 164 159 155 150 148 140 141 136
213 241 251 299 139 165 261 265 148 275 326 326 315 279 76 34 24 121 120 124 133 146 154 157 160 158 161 161 160 168 170 173 168 167 166 167 162 159 159 159 147 142 132 119
233 253 268 253 231 220 251 304 1 334 325 320 307 341 354 106 119 126 129 130 132 146 154 155 156 159 162 159 165 170 168 167 165 167 166 162 160 163 167 154 147 131 136 124
236 250 266 220 144 226 348 321 312 313 304 303 289 305 259 167 160 160 143 139 144 145 149 155 161 166 163 167 168 165 165 165 166 167 161 165 166 165 165 146 150 159 157 161
258 273 40 185 248 260 283 289 310 303 300 286 271 276 237 194 173 164 157 150 151 150 151 161 167 172 168 171 166 165 166 167 166 164 165 168 169 174 169 172 170 170 175 171
267 251 254 257 289 274 265 265 214 258 299 286 261 260 228 191 170 168 162 158 156 154 159 162 170 175 170 159 164 165 168 167 165 170 168 173 179 178 182 187 188 185 178 177
261 264 270 283 280 276 284 244 246 248 273 287 256 256 218 186 174 172 164 158 163 164 163 163 164 167 154 165 164 167 167 167 168 172 182 176 186 183 190 195 203 195 182 184
254 255 241 266 279 295 289 273 255 281 319 2 299 246 191 178 171 169 164 163 166 161 162 161 164 160 162 165 170 167 168 170 171 172 183 181 183 173 67 41 165 92 107 178
257 264 278 281 287 279 274 276 272 260 262 121 262 221 188 167 168 164 164 168 167 163 161 162 163 164 164 168 173 172 174 175 168 181 181 182 183 190 180 156 188 188 184 184
262 273 274 266 265 270 273 267 265 270 273 214 241 194 172 166 154 169 171 169 162 160 160 164 163 164 163 166 172 175 177 159 171 184 179 179 187 190 188 178 181 183 189 188
264 261 255 272 284 278 273 270 266 257 240 204 186 178 171 167 171 171 163 159 160 162 164 166 168 161 164 165 160 153 157 167 169 174 177 179 182 186 188 186 187 179 172 193
261 269 247 241 272 275 270 252 263 270 221 195 182 176 172 165 163 158 156 160 163 170 168 164 164 164 167 167 166 167 176 163 178 175 172 181 183 187 190 194 196 197 198 197
265 262 259 265 264 264 255 253 270 269 214 192 177 163 161 153 151 158 160 161 152 151 155 157 157 155 161 164 171 168 169 163 175 176 177 184 188 195 196 199 205 208 209 195
258 266 270 268 266 259 254 252 253 217 191 176 159 150 139 154 158 152 141 129 118 121 147 139 144 149 154 158 176 165 169 162 176 180 179 183 194 199 202 205 208 210 195 146
336 295 289 268 250 234 193 128 112 103 105 102 92 64 95 101 131 132 132 131 137 150 172 137 139 146 152 160 168 168 166 165 170 175 181 174 185 191 189 193 195 201 192 173
26 29 55 71 102 139 129 122 126 110 112 117 119 131 128 114 124 128 135 133 100 93 129 141 151 154 153 157 175 161 162 162 166 153 165 169 165 168 180 190 188 184 182 180
24 26 36 68 65 37 67 100 116 126 122 130 145 139 125 120 119 125 134 147 125 137 129 143 150 145 151 150 169 146 146 145 148 155 158 161 155 173 176 177 182 175 161 153
25 46 55 67 84 82 47 79 101 113 117 112 104 117 129 129 124 98 44 129 133 148 138 136 139 137 134 153 134 140 144 147 149 156 159 166 173 168 165 166 163 152 148 151
74 75 80 75 93 97 85 81 87 108 118 125 131 135 133 135 139 139 129 124 134 136 130 121 126 130 128 117 129 133 139 145 150 155 159 156 148 154 157 154 151 153 153 156
100 91 96 109 132 123 104 88 98 93 99 104 107 121 135 128 97 70 100 120 122 125 111 125 124 123 120 126 132 136 142 145 143 135 123 135 131 127 129 144 147 140 122 146
88 128 141 165 144 117 120 122 115 112 111 108 114 116 107 72 111 125 120 116 124 117 111 115 120 121 120 128 132 133 133 133 129 132 134 128 128 128 133 127 141 144 140 149
204 197 180 191 145 146 144 155 132 131 129 124 114 107 94 94 106 116 117 121 118 120 119 127 124 122 123 125 125 121 113 120 125 114 117 116 116 119 121 121 133 140 140 147
208 203 176 165 156 153 161 156 146 143 141 138 123 120 118 119 121 123 127 128 122 120 119 122 123 121 124 121 116 113 112 107 111 114 109 112 115 115 123 131 130 127 133 144